| time (UTC) | temp F | wind direction | speed MPH | gust MPH | rain 1hr in | rain 24hr in | rain mn in | humidity % | barometer mb |
| 20260509223453 | 52 | 192 | 1.0 | 4.0 | 0.00 | 0.00 | 0.00 | 92 | 1012.4 |
| 20260509222454 | 51 | 173 | 0.0 | 4.0 | 0.00 | 0.00 | 0.00 | 92 | 1012.3 |
| 20260509221452 | 51 | 311 | 0.0 | 2.0 | 0.00 | 0.00 | 0.00 | 92 | 1012.2 |
| 20260509220506 | 50 | 311 | 0.0 | 2.0 | 0.00 | 0.00 | 0.00 | 92 | 1012.2 |
| 20260509215452 | 50 | 311 | 0.0 | 2.0 | 0.00 | 0.00 | 0.00 | 92 | 1012.2 |
| 20260509214452 | 50 | 311 | 0.0 | 2.0 | 0.00 | 0.00 | 0.00 | 92 | 1012.0 |
| 20260509213446 | 50 | 311 | 0.0 | 1.0 | 0.00 | 0.00 | 0.00 | 91 | 1011.9 |
| 20260509212445 | 50 | 311 | 0.0 | 1.0 | 0.00 | 0.00 | 0.00 | 91 | 1011.7 |
| 20260509211446 | 50 | 311 | 0.0 | 0.0 | 0.00 | 0.00 | 0.00 | 90 | 1011.6 |
| 20260509210444 | 50 | 311 | 0.0 | 1.0 | 0.00 | 0.00 | 0.00 | 90 | 1011.4 |
| 20260509205446 | 50 | 311 | 0.0 | 2.0 | 0.00 | 0.00 | 0.00 | 90 | 1011.3 |
| 20260509204447 | 51 | 311 | 0.0 | 2.0 | 0.00 | 0.00 | 0.00 | 90 | 1011.2 |
| 20260509203447 | 51 | 311 | 0.0 | 1.0 | 0.00 | 0.00 | 0.00 | 90 | 1011.1 |
| 20260509202947 | 51 | 311 | 0.0 | 2.0 | 0.00 | 0.00 | 0.00 | 89 | 1011.0 |
| 20260509201446 | 51 | 311 | 0.0 | 2.0 | 0.00 | 0.00 | 0.00 | 89 | 1010.8 |
| 20260509200451 | 51 | 311 | 0.0 | 1.0 | 0.00 | 0.00 | 0.00 | 89 | 1010.8 |
| 20260509195505 | 52 | 311 | 0.0 | 0.0 | 0.00 | 0.00 | 0.00 | 89 | 1010.4 |
| 20260509195446 | 52 | 311 | 0.0 | 1.0 | 0.00 | 0.00 | 0.00 | 89 | 1010.6 |
| 20260509193445 | 52 | 311 | 0.0 | 3.0 | 0.00 | 0.00 | 0.00 | 90 | 1010.2 |
| 20260509192946 | 52 | 311 | 0.0 | 2.0 | 0.00 | 0.00 | 0.00 | 90 | 1010.1 |
| 20260509191445 | 52 | 311 | 1.0 | 3.0 | 0.00 | 0.00 | 0.00 | 90 | 1010.1 |
| 20260509190445 | 52 | 311 | 0.0 | 2.0 | 0.00 | 0.00 | 0.00 | 90 | 1010.1 |
| 20260509185941 | 52 | 311 | 1.0 | 3.0 | 0.00 | 0.00 | 0.00 | 90 | 1009.9 |
| 20260509184438 | 52 | 311 | 1.0 | 3.0 | 0.00 | 0.00 | 0.00 | 90 | 1009.8 |
| 20260509183438 | 52 | 311 | 0.0 | 2.0 | 0.00 | 0.00 | 0.00 | 89 | 1009.8 |
| 20260509182436 | 52 | 311 | 1.0 | 4.0 | 0.00 | 0.00 | 0.00 | 89 | 1009.7 |
| 20260509181437 | 52 | 311 | 0.0 | 3.0 | 0.00 | 0.00 | 0.00 | 89 | 1009.7 |
| 20260509180944 | 52 | 311 | 0.0 | 3.0 | 0.00 | 0.00 | 0.00 | 89 | 1009.6 |
| 20260509175440 | 52 | 311 | 0.0 | 2.0 | 0.00 | 0.00 | 0.00 | 89 | 1009.6 |
| 20260509174437 | 52 | 311 | 1.0 | 2.0 | 0.00 | 0.00 | 0.00 | 89 | 1009.6 |
| 20260509173437 | 52 | 311 | 0.0 | 3.0 | 0.00 | 0.00 | 0.00 | 89 | 1009.5 |
| 20260509172936 | 52 | 311 | 0.0 | 2.0 | 0.00 | 0.00 | 0.00 | 88 | 1009.5 |
| 20260509171432 | 52 | 311 | 0.0 | 2.0 | 0.00 | 0.00 | 0.00 | 88 | 1009.5 |
| 20260509170433 | 52 | 311 | 1.0 | 3.0 | 0.00 | 0.00 | 0.00 | 89 | 1009.5 |
| 20260509165433 | 52 | 311 | 1.0 | 3.0 | 0.00 | 0.00 | 0.00 | 89 | 1009.5 |
| 20260509164429 | 52 | 311 | 0.0 | 2.0 | 0.00 | 0.00 | 0.00 | 88 | 1009.5 |
| 20260509163430 | 53 | 311 | 1.0 | 3.0 | 0.00 | 0.00 | 0.00 | 89 | 1009.4 |
| 20260509162428 | 53 | 311 | 1.0 | 3.0 | 0.00 | 0.00 | 0.00 | 89 | 1009.4 |
| 20260509161429 | 52 | 311 | 0.0 | 3.0 | 0.00 | 0.00 | 0.00 | 89 | 1009.5 |
| 20260509160424 | 53 | 311 | 1.0 | 3.0 | 0.00 | 0.00 | 0.00 | 89 | 1009.5 |
| 20260509155427 | 53 | 311 | 1.0 | 3.0 | 0.00 | 0.00 | 0.00 | 89 | 1009.6 |
| 20260509154428 | 52 | 308 | 0.0 | 2.0 | 0.00 | 0.00 | 0.00 | 89 | 1009.5 |
| 20260509153926 | 53 | 293 | 1.0 | 3.0 | 0.00 | 0.00 | 0.00 | 89 | 1009.6 |
| 20260509152428 | 53 | 282 | 1.0 | 3.0 | 0.00 | 0.00 | 0.00 | 89 | 1009.7 |
| 20260509151430 | 53 | 282 | 1.0 | 2.0 | 0.00 | 0.00 | 0.00 | 89 | 1009.7 |
| 20260509150427 | 53 | 259 | 0.0 | 2.0 | 0.00 | 0.00 | 0.00 | 88 | 1009.6 |
| 20260509145427 | 53 | 259 | 0.0 | 2.0 | 0.00 | 0.00 | 0.00 | 88 | 1009.6 |
| 20260509144427 | 53 | 258 | 0.0 | 2.0 | 0.00 | 0.00 | 0.00 | 88 | 1009.6 |
| 20260509143424 | 53 | 258 | 0.0 | 2.0 | 0.00 | 0.00 | 0.00 | 88 | 1009.5 |
| 20260509142426 | 53 | 259 | 0.0 | 2.0 | 0.00 | 0.00 | 0.00 | 88 | 1009.6 |
| 20260509141426 | 53 | 259 | 0.0 | 1.0 | 0.00 | 0.00 | 0.00 | 88 | 1009.5 |
| 20260509140424 | 53 | 329 | 0.0 | 1.0 | 0.00 | 0.00 | 0.00 | 87 | 1009.5 |
| 20260509135424 | 53 | 329 | 0.0 | 2.0 | 0.00 | 0.00 | 0.00 | 88 | 1009.5 |
| 20260509134423 | 53 | 329 | 0.0 | 2.0 | 0.00 | 0.00 | 0.00 | 88 | 1009.5 |
| 20260509133423 | 53 | 329 | 0.0 | 1.0 | 0.00 | 0.00 | 0.00 | 88 | 1009.6 |
| 20260509132423 | 54 | 329 | 0.0 | 0.0 | 0.00 | 0.00 | 0.00 | 88 | 1009.6 |
| 20260509131424 | 54 | 329 | 0.0 | 0.0 | 0.00 | 0.00 | 0.00 | 88 | 1009.6 |
| 20260509130420 | 54 | 14 | 0.0 | 0.0 | 0.00 | 0.00 | 0.00 | 87 | 1009.6 |
| 20260509125420 | 54 | 14 | 0.0 | 0.0 | 0.00 | 0.00 | 0.00 | 87 | 1009.6 |
| 20260509124416 | 54 | 14 | 0.0 | 0.0 | 0.00 | 0.00 | 0.00 | 87 | 1009.6 |
| 20260509123414 | 54 | 14 | 0.0 | 0.0 | 0.00 | 0.00 | 0.00 | 87 | 1009.6 |
| 20260509122416 | 54 | 14 | 0.0 | 1.0 | 0.00 | 0.00 | 0.00 | 87 | 1009.7 |
| 20260509121414 | 55 | 14 | 0.0 | 2.0 | 0.00 | 0.00 | 0.00 | 87 | 1009.7 |
| 20260509120415 | 55 | 14 | 1.0 | 2.0 | 0.00 | 0.00 | 0.00 | 87 | 1009.8 |
| 20260509115415 | 55 | 14 | 1.0 | 3.0 | 0.00 | 0.00 | 0.00 | 87 | 1009.6 |
| 20260509114416 | 55 | 14 | 2.0 | 3.0 | 0.00 | 0.00 | 0.00 | 87 | 1009.6 |
| 20260509113418 | 55 | 16 | 2.0 | 3.0 | 0.00 | 0.00 | 0.00 | 87 | 1009.5 |
| 20260509112426 | 54 | 18 | 2.0 | 4.0 | 0.00 | 0.00 | 0.00 | 87 | 1009.5 |
| 20260509112414 | 55 | 18 | 3.0 | 3.0 | 0.00 | 0.00 | 0.00 | 87 | 1009.5 |
| 20260509110416 | 55 | 17 | 3.0 | 4.0 | 0.00 | 0.00 | 0.00 | 86 | 1009.5 |
| 20260509105417 | 55 | 10 | 3.0 | 4.0 | 0.00 | 0.00 | 0.00 | 85 | 1009.5 |
| 20260509104416 | 55 | 26 | 1.0 | 4.0 | 0.00 | 0.00 | 0.00 | 85 | 1009.4 |
| 20260509103912 | 56 | 27 | 0.0 | 2.0 | 0.00 | 0.00 | 0.00 | 84 | 1009.4 |
| 20260509102912 | 56 | 27 | 0.0 | 0.0 | 0.00 | 0.00 | 0.00 | 84 | 1009.3 |
| 20260509101409 | 56 | 27 | 0.0 | 2.0 | 0.00 | 0.00 | 0.00 | 84 | 1009.2 |
| 20260509100410 | 56 | 27 | 2.0 | 4.0 | 0.00 | 0.00 | 0.00 | 84 | 1009.2 |
| 20260509095410 | 56 | 26 | 3.0 | 4.0 | 0.00 | 0.00 | 0.00 | 83 | 1009.1 |
| 20260509094407 | 57 | 76 | 2.0 | 3.0 | 0.00 | 0.00 | 0.00 | 83 | 1009.0 |
| 20260509093409 | 57 | 76 | 2.0 | 3.0 | 0.00 | 0.00 | 0.00 | 82 | 1009.0 |
| 20260509092909 | 57 | 76 | 2.0 | 3.0 | 0.00 | 0.00 | 0.00 | 81 | 1008.9 |
| 20260509091404 | 57 | 76 | 2.0 | 3.0 | 0.00 | 0.00 | 0.00 | 81 | 1008.8 |
| 20260509090405 | 58 | 76 | 2.0 | 3.0 | 0.00 | 0.00 | 0.00 | 80 | 1008.7 |
| 20260509085405 | 58 | 76 | 2.0 | 3.0 | 0.00 | 0.00 | 0.00 | 79 | 1008.6 |
| 20260509084405 | 59 | 76 | 0.0 | 1.0 | 0.00 | 0.00 | 0.00 | 78 | 1008.4 |
| 20260509083405 | 59 | 76 | 1.0 | 3.0 | 0.00 | 0.00 | 0.00 | 78 | 1008.4 |
| 20260509082419 | 59 | 76 | 0.0 | 2.0 | 0.00 | 0.00 | 0.00 | 77 | 1008.3 |
| 20260509081904 | 60 | 76 | 0.0 | 2.0 | 0.00 | 0.00 | 0.00 | 76 | 1008.1 |
| 20260509080404 | 60 | 76 | 1.0 | 2.0 | 0.00 | 0.00 | 0.00 | 76 | 1008.0 |
| 20260509075405 | 60 | 76 | 0.0 | 2.0 | 0.00 | 0.00 | 0.00 | 75 | 1007.9 |
| 20260509074400 | 61 | 76 | 0.0 | 2.0 | 0.00 | 0.00 | 0.00 | 73 | 1007.8 |
| 20260509073359 | 62 | 76 | 1.0 | 2.0 | 0.00 | 0.00 | 0.00 | 72 | 1007.7 |
| 20260509072901 | 62 | 76 | 0.0 | 3.0 | 0.00 | 0.00 | 0.00 | 71 | 1007.7 |
| 20260509071407 | 63 | 140 | 1.0 | 3.0 | 0.00 | 0.00 | 0.00 | 69 | 1007.6 |
| 20260509071400 | 63 | 76 | 1.0 | 4.0 | 0.00 | 0.00 | 0.00 | 70 | 1007.6 |
| 20260509065357 | 63 | 98 | 2.0 | 6.0 | 0.00 | 0.00 | 0.00 | 69 | 1007.5 |
| 20260509064358 | 64 | 145 | 3.0 | 7.0 | 0.00 | 0.00 | 0.00 | 68 | 1007.3 |
| 20260509063358 | 64 | 153 | 3.0 | 7.0 | 0.00 | 0.00 | 0.00 | 67 | 1007.2 |
| 20260509062359 | 65 | 191 | 3.0 | 9.0 | 0.00 | 0.00 | 0.00 | 66 | 1007.2 |
| 20260509061353 | 65 | 109 | 3.0 | 9.0 | 0.00 | 0.00 | 0.00 | 65 | 1007.0 |
| 20260509060854 | 66 | 194 | 4.0 | 10.0 | 0.00 | 0.00 | 0.00 | 65 | 1006.9 |
| 20260509055349 | 66 | 119 | 3.0 | 7.0 | 0.00 | 0.00 | 0.00 | 64 | 1006.8 |
| 20260509054854 | 66 | 144 | 4.0 | 7.0 | 0.00 | 0.00 | 0.00 | 64 | 1006.8 |
| 20260509053350 | 66 | 204 | 3.0 | 8.0 | 0.00 | 0.00 | 0.00 | 64 | 1006.7 |
| 20260509052352 | 66 | 103 | 4.0 | 10.0 | 0.00 | 0.00 | 0.00 | 63 | 1006.7 |
| 20260509051348 | 66 | 163 | 4.0 | 10.0 | 0.00 | 0.00 | 0.00 | 63 | 1006.6 |
| 20260509050349 | 67 | 142 | 5.0 | 10.0 | 0.00 | 0.00 | 0.00 | 63 | 1006.6 |
| 20260509045346 | 67 | 194 | 5.0 | 11.0 | 0.00 | 0.00 | 0.00 | 62 | 1006.5 |
| 20260509044347 | 67 | 136 | 4.0 | 9.0 | 0.00 | 0.00 | 0.00 | 62 | 1006.5 |
| 20260509043346 | 68 | 117 | 4.0 | 13.0 | 0.00 | 0.00 | 0.00 | 61 | 1006.5 |
| 20260509042347 | 68 | 132 | 4.0 | 10.0 | 0.00 | 0.00 | 0.00 | 61 | 1006.5 |
| 20260509041346 | 68 | 114 | 5.0 | 11.0 | 0.00 | 0.00 | 0.00 | 59 | 1006.4 |
| 20260509040848 | 69 | 229 | 4.0 | 10.0 | 0.00 | 0.00 | 0.00 | 57 | 1006.4 |
| 20260509035347 | 70 | 148 | 1.0 | 3.0 | 0.00 | 0.00 | 0.00 | 51 | 1006.4 |
| 20260509034345 | 70 | 155 | 1.0 | 4.0 | 0.00 | 0.00 | 0.00 | 51 | 1006.4 |
| 20260509033345 | 70 | 230 | 2.0 | 5.0 | 0.00 | 0.00 | 0.00 | 52 | 1006.4 |
| 20260509032346 | 70 | 240 | 1.0 | 6.0 | 0.00 | 0.00 | 0.00 | 52 | 1006.6 |
| 20260509031346 | 69 | 277 | 2.0 | 7.0 | 0.00 | 0.00 | 0.00 | 53 | 1006.7 |
| 20260509030346 | 68 | 338 | 2.0 | 5.0 | 0.00 | 0.00 | 0.00 | 54 | 1006.8 |
| 20260509025936 | 67 | 261 | 1.0 | 4.0 | 0.00 | 0.00 | 0.00 | 56 | 1006.9 |
| 20260509024346 | 67 | 144 | 2.0 | 6.0 | 0.00 | 0.00 | 0.00 | 56 | 1007.0 |
| 20260509023347 | 67 | 163 | 2.0 | 7.0 | 0.00 | 0.00 | 0.00 | 56 | 1007.3 |
| 20260509022346 | 67 | 288 | 3.0 | 8.0 | 0.00 | 0.00 | 0.00 | 56 | 1007.3 |
| 20260509021344 | 66 | 229 | 4.0 | 11.0 | 0.00 | 0.00 | 0.00 | 55 | 1007.5 |
| 20260509020846 | 67 | 145 | 2.0 | 8.0 | 0.00 | 0.00 | 0.00 | 57 | 1007.6 |
| 20260509015438 | 67 | 178 | 3.0 | 8.0 | 0.00 | 0.00 | 0.00 | 58 | 1007.7 |
| 20260509015345 | 66 | 180 | 3.0 | 7.0 | 0.00 | 0.00 | 0.00 | 57 | 1007.7 |
| 20260509013345 | 67 | 153 | 1.0 | 6.0 | 0.00 | 0.00 | 0.00 | 58 | 1007.8 |
| 20260509012343 | 66 | 237 | 2.0 | 7.0 | 0.00 | 0.00 | 0.00 | 59 | 1008.0 |
| 20260509011357 | 65 | 155 | 3.0 | 10.0 | 0.00 | 0.00 | 0.00 | 62 | 1008.0 |
| 20260509011345 | 65 | 227 | 2.0 | 5.0 | 0.00 | 0.00 | 0.00 | 61 | 1007.9 |
| 20260509005345 | 65 | 178 | 2.0 | 10.0 | 0.00 | 0.00 | 0.00 | 63 | 1008.1 |
| 20260509004846 | 64 | 241 | 2.0 | 7.0 | 0.00 | 0.00 | 0.00 | 64 | 1008.2 |
| 20260509003344 | 63 | 252 | 2.0 | 8.0 | 0.00 | 0.00 | 0.00 | 65 | 1008.2 |
| 20260509002343 | 62 | 207 | 2.0 | 7.0 | 0.00 | 0.00 | 0.00 | 65 | 1008.2 |
| 20260509001344 | 61 | 194 | 3.0 | 8.0 | 0.00 | 0.00 | 0.00 | 67 | 1008.3 |
| 20260509000422 | 60 | 216 | 1.0 | 6.0 | 0.00 | 0.00 | 0.00 | 69 | 1008.3 |
| 20260508235344 | 59 | 245 | 2.0 | 7.0 | 0.00 | 0.00 | 0.00 | 70 | 1008.4 |
| 20260508234345 | 58 | 265 | 2.0 | 8.0 | 0.00 | 0.00 | 0.00 | 72 | 1008.5 |
| 20260508233357 | 58 | 244 | 2.0 | 5.0 | 0.00 | 0.00 | 0.00 | 74 | 1008.4 |
| 20260508232338 | 57 | 187 | 2.0 | 5.0 | 0.00 | 0.00 | 0.00 | 74 | 1008.4 |
| 20260508231840 | 56 | 294 | 1.0 | 5.0 | 0.00 | 0.00 | 0.00 | 76 | 1008.4 |
| 20260508230351 | 55 | 227 | 1.0 | 4.0 | 0.00 | 0.00 | 0.00 | 77 | 1008.4 |
| 20260508230338 | 56 | 234 | 1.0 | 5.0 | 0.00 | 0.00 | 0.00 | 77 | 1008.5 |
| 20260508224339 | 55 | 243 | 1.0 | 5.0 | 0.00 | 0.00 | 0.00 | 78 | 1008.4 |